Weather History for PARC - May, 2013

Change the Weather History Date:

Monday, May 6, 2013

  Actual Average Record
Temperature  
Mean Temperature 13 °F -  
Max Temperature 28 °F 42 °F 61 °F (1991)
Min Temperature -2 °F 17 °F -13 °F (1992)
Degree Days  
Heating Degree Days 52    
Moisture  
Dew Point 3 °F    
Average Humidity 55    
Maximum Humidity 100    
Minimum Humidity 29    
Precipitation  
Precipitation 0.00 in - - ()
Sea Level Pressure  
Sea Level Pressure 29.98 in    
Wind  
Wind Speed 2 mph (ESE)    
Max Wind Speed 9 mph    
Max Gust Speed -    
Visibility 10 miles    
Events      
Averages and records for this station are not official NWS values.
T = Trace of Precipitation, MM = Missing Value Source: NWS Daily Summary

Daily Weather History Graph

Daily Weather History Graph

Search for Another Location

Airport or City:

Trip Planner

Search our weather history database for the weather conditions in past years. The results will help you decide how hot, cold, wet, or windy it might be!

Date:

Astronomy

May. 06, 2013 Rise Set
Actual Time 4:11 AM AKDT 11:09 PM AKDT
Civil Twilight 2:11 AM AKDT 1:06 AM AKDT
Nautical Twilight Sun does not rise Sun does not rise
Astronomical Twilight Sun does not rise Sun does not rise
Moon 4:05 AM AKDT (5/6) 6:49 PM AKDT (5/6)
Length of Visible Light 22h 55m
Length of Day
18h 58m
Waning Crescent, 10% of the Moon is Illuminated
May 6
Waning Crescent
May 9
New
May 17
First Quarter
May 24
Full
May 31
Last Quarter

Hourly Weather History & Observations

Time (AKDT) Temp. Windchill Dew Point Humidity Pressure Visibility Wind Dir Wind Speed Gust Speed Precip Events Conditions
12:16 AM 10.4 °F 2.2 °F 8.6 °F 92% 29.96 in 10.0 mi ENE 4.6 mph - N/A   Clear
12:36 AM 8.6 °F 0.1 °F 1.4 °F 73% 29.96 in 10.0 mi NE 4.6 mph - N/A   Clear
12:56 AM 6.8 °F - -7.6 °F 52% 29.96 in 10.0 mi Calm Calm - N/A   Clear
1:16 AM 6.8 °F -0.1 °F 1.4 °F 79% 29.97 in 10.0 mi ENE 3.5 mph - N/A   Clear
1:36 AM 6.8 °F - 3.2 °F 85% 29.97 in 10.0 mi Calm Calm - N/A   Clear
1:56 AM 5.0 °F - -0.4 °F 78% 29.97 in 10.0 mi Calm Calm - N/A   Clear
2:16 AM 3.2 °F - -5.8 °F 66% 29.97 in 10.0 mi Calm Calm - N/A   Clear
2:36 AM 3.2 °F - -0.4 °F 85% 29.98 in 10.0 mi Calm Calm - N/A   Clear
2:56 AM 1.4 °F -6.2 °F -5.8 °F 72% 29.98 in 10.0 mi ESE 3.5 mph - N/A   Clear
3:16 AM 1.4 °F - -5.8 °F 72% 29.98 in 10.0 mi Calm Calm - N/A   Clear
3:36 AM 1.4 °F - -0.4 °F 92% 29.98 in 10.0 mi Calm Calm - N/A   Clear
3:56 AM 3.2 °F - 3.2 °F 100% 29.98 in 10.0 mi Calm Calm - N/A   Clear
4:16 AM -0.4 °F - -14.8 °F 51% 29.98 in 10.0 mi Calm Calm - N/A   Clear
4:36 AM -0.4 °F - - N/A% 29.98 in 10.0 mi Calm Calm - N/A   Clear
4:56 AM 1.4 °F -6.2 °F -4.0 °F 78% 29.98 in 10.0 mi NNE 3.5 mph - N/A   Clear
5:16 AM -2.2 °F - -27.4 °F 29% 29.98 in 10.0 mi Calm Calm - N/A   Clear
5:36 AM -0.4 °F - - N/A% 29.98 in 10.0 mi Calm Calm - N/A   Clear
5:56 AM 1.4 °F - -16.6 °F 43% 29.99 in 10.0 mi Calm Calm - N/A   Clear
6:16 AM 1.4 °F - -18.4 °F 39% 29.98 in 10.0 mi Calm Calm - N/A   Clear
6:36 AM 1.4 °F - - N/A% 29.98 in 10.0 mi Calm Calm - N/A   Clear
6:56 AM 3.2 °F - -4.0 °F 72% 29.99 in 10.0 mi Calm Calm - N/A   Clear
7:16 AM 6.8 °F - -18.4 °F 31% 29.99 in 10.0 mi Calm Calm - N/A   Clear
7:36 AM 6.8 °F -0.1 °F -5.8 °F 56% 29.99 in 10.0 mi East 3.5 mph - N/A   Clear
7:56 AM 6.8 °F - - N/A% 29.99 in 10.0 mi Calm Calm - N/A   Clear
8:16 AM 8.6 °F - -9.4 °F 44% 29.99 in 10.0 mi Calm Calm - N/A   Clear
8:36 AM 8.6 °F - -14.8 °F 34% 29.98 in 10.0 mi Calm Calm - N/A   Clear
8:56 AM 10.4 °F 4.0 °F 3.2 °F 73% 29.98 in 10.0 mi East 3.5 mph - N/A   Clear
9:16 AM 10.4 °F - 10.4 °F 100% 29.98 in 10.0 mi Calm Calm - N/A   Clear
9:36 AM 12.2 °F - -4.0 °F 48% 29.98 in 10.0 mi Calm Calm - N/A   Clear
9:56 AM 12.2 °F 6.1 °F -7.6 °F 41% 29.98 in 10.0 mi ENE 3.5 mph - N/A   Clear
10:16 AM 15.8 °F 10.2 °F -5.8 °F 38% 29.98 in 10.0 mi NE 3.5 mph - N/A   Clear
10:36 AM 17.6 °F 12.3 °F 5.0 °F 58% 29.98 in 10.0 mi ENE 3.5 mph - N/A   Clear
10:56 AM 17.6 °F 12.3 °F 10.4 °F 73% 29.98 in 10.0 mi East 3.5 mph - N/A   Clear
11:16 AM 17.6 °F - 6.8 °F 63% 29.98 in 10.0 mi Calm Calm - N/A   Clear
11:36 AM 19.4 °F 14.3 °F 1.4 °F 46% 29.98 in 10.0 mi East 3.5 mph - N/A   Clear
11:56 AM 19.4 °F - -0.4 °F 42% 29.98 in 10.0 mi Calm Calm - N/A   Scattered Clouds
12:16 PM 21.2 °F - 1.4 °F 42% 29.98 in 10.0 mi Calm Calm - N/A   Partly Cloudy
12:36 PM 21.2 °F - 5.0 °F 50% 29.98 in 10.0 mi Calm Calm - N/A   Clear
12:56 PM 23.0 °F - 5.0 °F 46% 29.98 in 10.0 mi Calm Calm - N/A   Clear
1:16 PM 24.8 °F - 6.8 °F 46% 29.98 in 10.0 mi Calm Calm - N/A   Clear
1:36 PM 24.8 °F 20.5 °F 6.8 °F 46% 29.98 in 10.0 mi South 3.5 mph - N/A   Clear
1:56 PM 24.8 °F 20.5 °F 6.8 °F 46% 29.98 in 10.0 mi South 3.5 mph - N/A   Clear
2:16 PM 26.6 °F 19.1 °F 5.0 °F 40% 29.98 in 10.0 mi South 6.9 mph - N/A   Mostly Cloudy
2:56 PM 26.6 °F 20.0 °F 6.8 °F 43% 29.98 in 10.0 mi SSW 5.8 mph - N/A   Partly Cloudy
3:16 PM 28.4 °F 21.2 °F 6.8 °F 40% 29.98 in 10.0 mi SSE 6.9 mph - N/A   Clear
3:36 PM 28.4 °F 24.6 °F 8.6 °F 43% 29.98 in 10.0 mi South 3.5 mph - N/A   Partly Cloudy
3:56 PM 28.4 °F 20.4 °F 10.4 °F 47% 29.98 in 10.0 mi SW 8.1 mph - N/A   Scattered Clouds
4:16 PM 28.4 °F 23.3 °F 8.6 °F 43% 29.98 in 10.0 mi South 4.6 mph - N/A   Mostly Cloudy
4:36 PM 28.4 °F 20.4 °F 10.4 °F 47% 29.98 in 10.0 mi South 8.1 mph - N/A   Mostly Cloudy
4:56 PM 28.4 °F 22.2 °F 10.4 °F 47% 29.98 in 10.0 mi WSW 5.8 mph - N/A   Mostly Cloudy
5:16 PM 28.4 °F - 12.2 °F 51% 29.98 in 10.0 mi Calm Calm - N/A   Mostly Cloudy
5:36 PM 28.4 °F 22.2 °F 10.4 °F 47% 29.98 in 10.0 mi NNE 5.8 mph - N/A   Mostly Cloudy
5:56 PM 28.4 °F 22.2 °F 8.6 °F 43% 29.98 in 10.0 mi NNE 5.8 mph - N/A   Overcast
6:16 PM 28.4 °F 22.2 °F 10.4 °F 47% 29.98 in 10.0 mi NE 5.8 mph - N/A   Overcast
6:36 PM 28.4 °F - 8.6 °F 43% 29.98 in 10.0 mi Calm Calm - N/A   Overcast
6:56 PM 28.4 °F 20.4 °F 8.6 °F 43% 29.98 in 10.0 mi West 8.1 mph - N/A   Mostly Cloudy
7:16 PM 28.4 °F 20.4 °F 10.4 °F 47% 29.98 in 10.0 mi West 8.1 mph - N/A   Partly Cloudy
7:36 PM 28.4 °F 19.7 °F 10.4 °F 47% 29.98 in 10.0 mi West 9.2 mph - N/A   Clear
7:56 PM 26.6 °F 20.0 °F 10.4 °F 51% 29.99 in 10.0 mi West 5.8 mph - N/A   Clear
8:16 PM 26.6 °F 19.1 °F 10.4 °F 51% 29.99 in 10.0 mi West 6.9 mph - N/A   Clear
8:36 PM 26.6 °F 17.5 °F 10.4 °F 51% 29.98 in 10.0 mi West 9.2 mph - N/A   Clear
8:56 PM 26.6 °F 19.1 °F 10.4 °F 51% 29.99 in 10.0 mi WNW 6.9 mph - N/A   Mostly Cloudy
9:16 PM 26.6 °F 22.6 °F 10.4 °F 51% 29.99 in 10.0 mi West 3.5 mph - N/A   Overcast
9:36 PM 26.6 °F 22.6 °F 10.4 °F 51% 29.99 in 10.0 mi West 3.5 mph - N/A   Overcast
9:56 PM 26.6 °F - 12.2 °F 55% 30.00 in 10.0 mi Calm Calm - N/A   Overcast
10:16 PM 26.6 °F - 10.4 °F 51% 30.00 in 10.0 mi Calm Calm - N/A   Overcast
10:36 PM 24.8 °F - 10.4 °F 54% 30.00 in 10.0 mi Calm Calm - N/A   Partly Cloudy
10:56 PM 23.0 °F - 10.4 °F 59% 30.00 in 10.0 mi Calm Calm - N/A   Scattered Clouds
11:16 PM 23.0 °F 18.4 °F 10.4 °F 59% 30.00 in 10.0 mi NE 3.5 mph - N/A   Partly Cloudy
11:36 PM 21.2 °F - 8.6 °F 58% 30.00 in 10.0 mi Calm Calm - N/A   Clear
11:56 PM 21.2 °F - 8.6 °F 58% 30.00 in 10.0 mi Calm Calm - N/A   Clear